Location: Malcolm X Square
(37.7810°N, 122.4297°W)
Time: 22:13:59
(UTC+00:00)

KORONAS-FOTON - Pass Details

Date: 13 April 2024
Orbit: 478 x 498 km, 82.4° (Epoch: 20 May)

Event Time Altitude Azimuth Distance (km) Brightness Sun altitude
Rises 12:49:30 0° 185° (S) 2,555 7.1 -9.7°
Reaches altitude 10° 12:51:36 10° 184° (S) 1,674 6.2 -9.4°
Maximum altitude 12:55:16 85° 97° (E) 494 3.7 -8.7°
Drops below altitude 10° 12:58:56 10° 8° (N) 1,673 6.8 -8.0°
Sets 13:01:02 0° 8° (N) 2,554 7.7 -7.6°
